Home   Weather   Firenze   Past weeks

Flag for Italy Past Weather in Firenze, Italy — Yesterday and Last 2 Weeks

Now
84 °F

Passing clouds.


Feels Like: 83 °F
Forecast: 62 / 88 °F
Wind: 9 mph from Northeast

Location: Florence / Peretola

Current Time: Jun 18, 2018 at 5:45:59 pm

Latest Report: Jun 18, 2018 at 5:20 pm


Visibility: N/A

Pressure: 29.95 "Hg

Humidity: 40%

Dew Point: 57 °F

Location of FirenzeLocation

Past Weather in Firenze — Graph

°F

Firenze Temperature Yesterday

Maximum temperature yesterday: 88 °F (at 1:50 pm)
Minimum temperature yesterday: 61 °F (at 4:20 am)
Average temperature yesterday: 75 °F

High & Low Weather Summary for the Past Weeks

 TemperatureHumidityPressure
High88 °F (Jun 3, 4:50 pm)100% (Jun 8, 5:20 am)30.04 "Hg (Jun 8, 5:20 am)
Low61 °F (Jun 5, 4:50 am)33% (Jun 17, 2:20 pm)29.65 "Hg (Jun 13, 2:50 pm)
Average72 °F68%29.87 "Hg
* Reported Jun 3 4:20 pm — Jun 18 4:20 pm, Firenze. Weather by CustomWeather, © 2018

Note: Actual official high and low records may vary slightly from our data, if they occured in-between our weather recording intervals... More about our weather records

Advertising

Firenze Weather History for the Previous 24 Hours

Scroll right to see more
 ConditionsComfort  
Time TempWeatherWind HumidityBarometerVisibility
4:20 pm
Mon, Jun 18
84 °FPassing clouds.7 mph45%29.95 "HgN/A
3:50 pm84 °FPassing clouds.9 mph43%29.95 "HgN/A
3:20 pm86 °FPassing clouds.10 mph43%29.95 "HgN/A
2:20 pm84 °FSunny.7 mph45%29.98 "Hg10 mi
1:50 pm82 °FPassing clouds.10 mph42%29.98 "HgN/A
1:20 pm86 °FPassing clouds.13 mph40%29.98 "HgN/A
12:50 pm84 °FPassing clouds.10 mph43%29.98 "HgN/A
12:20 pm82 °FPassing clouds.9 mph45%29.98 "HgN/A
11:50 am84 °FPassing clouds.12 mph43%29.98 "HgN/A
11:20 am84 °FPassing clouds.12 mph43%29.98 "HgN/A
10:50 am81 °FSunny.14 mph48%29.98 "Hg10 mi
10:20 am82 °FSunny.8 mph45%29.98 "Hg10 mi
9:20 am73 °FSunny.2 mph74%29.98 "Hg10 mi
8:50 am70 °FSunny.2 mph83%29.98 "Hg10 mi
8:20 am70 °FSunny.2 mph83%29.98 "Hg10 mi
7:50 am68 °FPassing clouds.1 mph88%29.98 "HgN/A
7:20 am66 °FPassing clouds.1 mph94%29.98 "Hg4 mi
6:50 am64 °FScattered clouds.1 mph94%29.95 "HgN/A
6:20 am63 °FSunny.1 mph88%29.95 "Hg10 mi
5:50 am61 °FClear.3 mph88%29.95 "HgN/A
5:20 am63 °FClear.1 mph88%29.95 "Hg10 mi
4:50 am63 °FClear.3 mph88%29.95 "Hg10 mi
4:20 am63 °FClear.2 mph88%29.95 "Hg10 mi
3:50 am63 °FClear.3 mph88%29.95 "Hg10 mi
3:20 am64 °FClear.2 mph83%29.95 "Hg10 mi
2:50 am64 °FClear.5 mph83%29.95 "Hg10 mi
2:20 am64 °FClear.3 mph83%29.95 "Hg10 mi
1:50 am66 °FClear.5 mph78%29.95 "Hg10 mi
1:20 am66 °FClear.2 mph78%29.95 "Hg10 mi
12:50 am66 °FClear.5 mph78%29.95 "Hg10 mi
12:20 am72 °FClear.5 mph73%29.95 "Hg10 mi
11:50 pm
Sun, Jun 17
73 °FClear.3 mph69%29.95 "Hg10 mi
11:20 pm73 °FClear.1 mph65%29.95 "Hg10 mi
10:50 pm73 °FClear.3 mph65%29.95 "Hg10 mi
10:20 pm73 °FPassing clouds.5 mph61%29.95 "HgN/A
9:50 pm77 °FClear.6 mph47%29.92 "Hg10 mi
9:20 pm79 °FClear.6 mph45%29.92 "Hg10 mi
8:50 pm81 °FSunny.5 mph45%29.89 "Hg10 mi
8:20 pm82 °FSunny.7 mph42%29.89 "Hg10 mi
7:50 pm84 °FPassing clouds.8 mph43%29.89 "HgN/A
7:20 pm84 °FPassing clouds.6 mph45%29.89 "HgN/A
6:50 pm86 °FPassing clouds.8 mph43%29.89 "HgN/A
6:20 pm86 °FPassing clouds.8 mph43%29.86 "HgN/A
5:50 pm86 °FPassing clouds.9 mph43%29.86 "HgN/A
5:20 pm84 °FScattered clouds.7 mph45%29.89 "HgN/A
Weather by CustomWeather, © 2018

See weather overview